Weather History for McAllen, TX

Change the Weather History Date:

Tuesday, October 22, 2013

  Actual Average Record
Temperature  
Mean Temperature 75 °F 76 °F  
Max Temperature 81 °F 87 °F 95 °F (1950)
Min Temperature 68 °F 66 °F 46 °F (1976)
Degree Days  
Heating Degree Days 0 0  
Month to date heating degree days 0 0  
Since 1 July heating degree days 0 0  
Cooling Degree Days 10 11  
Month to date cooling degree days 312 291  
Year to date cooling degree days 4244 4090  
Growing Degree Days 24 (Base 50)    
Moisture  
Dew Point 63 °F    
Average Humidity 74    
Maximum Humidity 97    
Minimum Humidity 50    
Precipitation  
Precipitation 0.00 in 0.07 in 1.56 in (1958)
Month to date precipitation 0.14 1.57  
Year to date precipitation 12.30 19.61  
Sea Level Pressure  
Sea Level Pressure 30.06 in    
Wind  
Wind Speed 10 mph (NNW)    
Max Wind Speed 20 mph    
Max Gust Speed 22 mph    
Visibility 10 miles    
Events Rain    
T = Trace of Precipitation, MM = Missing Value Source: NWS Daily Summary

Daily Weather History Graph

Daily Weather History Graph

Search for Another Location

Airport:

Trip Planner

Search our weather history database for the weather conditions in past years. The results will help you decide how hot, cold, wet, or windy it might be!

Date:

Astronomy

Oct. 22, 2013 Rise Set
Actual Time 7:35 AM CDT 6:58 PM CDT
Civil Twilight 7:12 AM CDT 7:21 PM CDT
Nautical Twilight 6:45 AM CDT 7:48 PM CDT
Astronomical Twilight 6:18 AM CDT 8:15 PM CDT
Moon 9:54 PM CDT (10/22) 10:51 AM CDT (10/22)
Length of Visible Light 12h 09m
Length of Day
11h 22m
Waning Gibbous, 86% of the Moon is Illuminated
Oct 22
Waning Gibbous
Oct 26
Last Quarter
Nov 3
New
Nov 9
First Quarter
Nov 17
Full

Hourly Weather History & Observations

Time (CDT) Temp. Heat Index Dew Point Humidity Pressure Visibility Wind Dir Wind Speed Gust Speed Precip Events Conditions
12:20 AM 73.4 °F - 71.6 °F 94% 29.95 in 10.0 mi NNE 5.8 mph - 0.03 in Rain Light Rain
12:53 AM 73.0 °F - 70.0 °F 90% 29.95 in 10.0 mi NE 5.8 mph - 0.03 in   Overcast
1:53 AM 72.0 °F - 69.1 °F 91% 29.96 in 10.0 mi North 9.2 mph - N/A   Mostly Cloudy
2:53 AM 71.1 °F - 69.1 °F 93% 29.96 in 10.0 mi North 8.1 mph - N/A   Clear
3:53 AM 71.1 °F - 68.0 °F 90% 29.97 in 10.0 mi North 10.4 mph - N/A   Clear
4:53 AM 70.0 °F - 66.9 °F 90% 29.99 in 10.0 mi NNW 9.2 mph - N/A   Mostly Cloudy
5:53 AM 69.1 °F - 66.9 °F 93% 30.01 in 10.0 mi NNW 6.9 mph - N/A   Scattered Clouds
6:08 AM 69.8 °F - 66.2 °F 88% 30.01 in 10.0 mi NNW 12.7 mph - N/A   Mostly Cloudy
6:53 AM 69.1 °F - 66.9 °F 93% 30.03 in 9.0 mi North 12.7 mph 21.9 mph N/A   Overcast
7:53 AM 70.0 °F - 68.0 °F 93% 30.05 in 10.0 mi North 9.2 mph - N/A   Overcast
8:53 AM 71.1 °F - 68.0 °F 90% 30.07 in 10.0 mi North 10.4 mph - N/A   Overcast
9:10 AM 71.6 °F - 68.0 °F 88% 30.08 in 10.0 mi North 18.4 mph 21.9 mph N/A   Overcast
9:27 AM 69.8 °F - 66.2 °F 88% 30.09 in 10.0 mi North 15.0 mph - N/A   Overcast
9:38 AM 69.8 °F - 66.2 °F 88% 30.09 in 10.0 mi North 15.0 mph - N/A   Overcast
9:53 AM 69.1 °F - 63.0 °F 81% 30.10 in 10.0 mi North 16.1 mph 21.9 mph N/A   Overcast
10:53 AM 70.0 °F - 63.0 °F 78% 30.12 in 10.0 mi NNW 10.4 mph - N/A   Overcast
11:24 AM 71.6 °F - 62.6 °F 73% 30.13 in 10.0 mi WNW 9.2 mph - N/A   Overcast
11:53 AM 73.0 °F - 63.0 °F 71% 30.13 in 10.0 mi NNW 10.4 mph - N/A   Overcast
12:34 PM 75.2 °F - 62.6 °F 65% 30.12 in 10.0 mi North 10.4 mph - N/A   Mostly Cloudy
12:51 PM 75.2 °F - 62.6 °F 65% 30.12 in 10.0 mi NNW 11.5 mph - N/A   Mostly Cloudy
12:53 PM 75.0 °F - 63.0 °F 66% 30.11 in 10.0 mi NNW 11.5 mph - N/A   Mostly Cloudy
1:20 PM 77.0 °F - 62.6 °F 61% 30.10 in 10.0 mi NW 13.8 mph - N/A   Mostly Cloudy
1:53 PM 77.0 °F - 62.1 °F 60% 30.08 in 10.0 mi NNW 12.7 mph - N/A   Overcast
2:53 PM 78.1 °F - 62.1 °F 58% 30.06 in 10.0 mi NW 12.7 mph - N/A   Partly Cloudy
3:53 PM 80.1 °F 81.1 °F 61.0 °F 52% 30.04 in 10.0 mi NW 11.5 mph 21.9 mph N/A   Clear
4:53 PM 80.1 °F 80.9 °F 60.1 °F 50% 30.03 in 10.0 mi NNW 12.7 mph - N/A   Clear
5:53 PM 79.0 °F - 59.0 °F 50% 30.02 in 10.0 mi NW 11.5 mph - N/A   Clear
6:53 PM 77.0 °F - 57.9 °F 52% 30.04 in 10.0 mi NW 6.9 mph - N/A   Clear
7:53 PM 73.0 °F - 57.9 °F 59% 30.06 in 10.0 mi NW 4.6 mph - N/A   Partly Cloudy
8:53 PM 75.9 °F - 57.0 °F 52% 30.09 in 10.0 mi North 8.1 mph - N/A   Scattered Clouds
9:53 PM 73.9 °F - 57.0 °F 55% 30.10 in 10.0 mi NNE 9.2 mph - N/A   Partly Cloudy
10:53 PM 72.0 °F - 54.0 °F 53% 30.11 in 10.0 mi NNE 9.2 mph - N/A   Clear
11:53 PM 70.0 °F - 51.1 °F 51% 30.11 in 10.0 mi NNE 9.2 mph - N/A   Clear